Jackson, WY

4:49 AM MST on December 12, 2019 (GMT -0700)
Jackson Hole

Weather History for KJAC - October, 2019

Change the Weather History Date:

Tuesday, October 8, 2019

  Actual Average Record
Temperature  
Mean Temperature 42 °F -  
Max Temperature 64 °F 59 °F 75 °F (1980)
Min Temperature 23 °F 24 °F 13 °F (1968)
Degree Days  
Heating Degree Days 22    
Moisture  
Dew Point 23 °F    
Average Humidity 48    
Maximum Humidity 88    
Minimum Humidity 21    
Precipitation  
Precipitation 0.00 in - - ()
Sea Level Pressure  
Sea Level Pressure 29.90 in    
Wind  
Wind Speed 8 mph ()    
Max Wind Speed 22 mph    
Max Gust Speed 30 mph    
Visibility 10.0 miles    
Events      
Averages and records for this station are not official NWS values.
T = Trace of Precipitation, MM = Missing Value Source: Averaged Metar Reports

Daily Weather History Graph

Daily Weather History Graph

Search for Another Location

Airport or City:

Astronomy

Oct. 08, 2019 Rise Set
Actual Time 7:28 AM MDT 6:51 PM MDT
Civil Twilight 6:59 AM MDT 7:20 PM MDT
Nautical Twilight 6:26 AM MDT 7:53 PM MDT
Astronomical Twilight 5:53 AM MDT 8:26 PM MDT
Moon 5:03 PM MDT (10/8) 2:09 AM MDT (10/8)
Length of Visible Light 12h 20m
Length of Day
11h 23m
Waxing Gibbous, 78% of the Moon is Illuminated
Oct 8
Waxing Gibbous
Oct 13
Full
Oct 21
Last Quarter
Oct 27
New
Nov 4
First Quarter

Hourly Weather History & Observations

Time (MDT) Temp. Windchill Dew Point Humidity Pressure Visibility Wind Dir Wind Speed Gust Speed Precip Events Conditions
12:56 AM 32.0 °F 28.7 °F 21.9 °F 66% 30.10 in 10.0 mi SSE 3.5 mph - N/A   Clear
1:56 AM 30.9 °F 26.2 °F 21.9 °F 69% 30.06 in 10.0 mi South 4.6 mph - N/A   Clear
2:56 AM 30.0 °F - 21.0 °F 69% 30.03 in 10.0 mi Calm Calm - N/A   Clear
3:56 AM 26.1 °F - 21.0 °F 81% 30.02 in 10.0 mi Calm Calm - N/A   Clear
4:56 AM 24.1 °F 13.7 °F 21.0 °F 88% 30.02 in 10.0 mi NNE 10.4 mph - N/A   Clear
5:56 AM 24.1 °F 14.4 °F 21.0 °F 88% 30.03 in 10.0 mi NNE 9.2 mph - N/A   Clear
6:56 AM 23.0 °F 15.8 °F 19.9 °F 88% 30.06 in 10.0 mi NNE 5.8 mph - N/A   Clear
7:56 AM 24.1 °F 18.2 °F 19.9 °F 84% 30.05 in 10.0 mi NNE 4.6 mph - N/A   Clear
8:56 AM 32.0 °F - 24.1 °F 73% 30.04 in 10.0 mi Calm Calm - N/A   Clear
9:56 AM 42.1 °F 37.7 °F 24.1 °F 49% 29.98 in 10.0 mi SW 6.9 mph - N/A   Clear
10:56 AM 55.9 °F - 23.0 °F 28% 29.87 in 10.0 mi SSW 19.6 mph 28.8 mph N/A   Clear
11:56 AM 57.9 °F - 21.9 °F 25% 29.86 in 10.0 mi South 21.9 mph 29.9 mph N/A   Clear
12:56 PM 61.0 °F - 23.0 °F 23% 29.85 in 10.0 mi SSW 18.4 mph 29.9 mph N/A   Clear
1:56 PM 62.1 °F - 23.0 °F 22% 29.83 in 10.0 mi SSW 21.9 mph 29.9 mph N/A   Clear
2:56 PM 62.1 °F - 24.1 °F 23% 29.83 in 10.0 mi SSW 21.9 mph 28.8 mph N/A   Clear
3:56 PM 62.1 °F - 21.9 °F 21% 29.83 in 10.0 mi SSW 21.9 mph 26.5 mph N/A   Partly Cloudy
4:56 PM 59.0 °F - 23.0 °F 25% 29.83 in 10.0 mi SW 17.3 mph 24.2 mph N/A   Partly Cloudy
5:56 PM 57.0 °F - 24.1 °F 28% 29.83 in 10.0 mi SSW 13.8 mph - N/A   Clear
6:56 PM 55.0 °F - 23.0 °F 29% 29.84 in 10.0 mi SSW 11.5 mph - N/A   Mostly Cloudy
7:56 PM 53.1 °F - 25.0 °F 34% 29.83 in 10.0 mi SSW 8.1 mph - N/A   Overcast
8:56 PM 53.1 °F - 24.1 °F 32% 29.78 in 10.0 mi SSW 8.1 mph - N/A   Overcast
9:56 PM 53.1 °F - 24.1 °F 32% 29.72 in 10.0 mi SSW 9.2 mph - N/A   Overcast
10:56 PM 50.0 °F - 24.1 °F 36% 29.65 in 10.0 mi SW 4.6 mph - N/A   Overcast
11:56 PM 51.1 °F - 23.0 °F 33% 29.61 in 10.0 mi South 11.5 mph - N/A   Overcast